Temperature
14 14 14 14 14 15 15 15 15 15 15 15 16 16 16 16 16 16 16 16 16 16 16 16 16 16 16 16 16 16 15 15 15 15 15 15 15 15
13 14 14 14 14 14 14 14 15 15 15 15 15 15 15 15 15 15 16 16 16 16 16 16 16 16 16 15 15 15 15 15 15 15 15 15 14 14
13 13 13 14 14 14 14 14 14 14 14 15 15 15 15 15 15 15 15 15 15 15 15 15 15 15 15 15 15 15 15 15 15 14 14 14 14 14
13 13 13 13 14 14 14 14 14 14 14 14 14 15 15 14 15 15 15 15 15 15 15 15 15 15 15 15 15 15 15 14 14 14 14 14 14 14
13 13 13 13 13 13 14 14 14 14 14 14 14 14 14 14 14 14 14 14 14 14 15 15 15 15 15 14 14 14 14 14 14 14 14 14 13 13
13 13 13 13 13 13 13 13 13 14 14 14 14 14 14 14 14 14 14 14 14 14 14 14 14 14 14 14 14 14 14 14 13 13 13 13 13 13
12 13 13 13 13 13 13 13 13 13 13 13 13 13 13 13 13 13 13 14 13 13 13 14 14 14 14 13 13 13 13 13 13 13 13 13 12 12
12 12 12 12 13 13 13 13 13 13 13 13 13 13 13 13 13 13 13 13 13 13 13 13 13 13 13 13 13 13 13 13 13 12 12 12 12 12
12 12 12 12 12 12 12 13 13 13 13 13 13 13 13 13 13 13 13 13 13 13 13 12 12 12 12 12 13 12 12 12 12 12 12 12 12 11
12 12 12 12 12 12 12 12 12 12 13 13 13 13 13 13 13 13 13 13 13 12 12 12 12 12 12 12 12 12 12 12 12 12 11 11 11 11
12 12 12 12 12 12 12 12 12 12 12 12 12 13 13 13 13 13 12 12 12 12 12 12 12 11 11 11 11 11 11 11 11 11 11 11 11 11
12 12 12 12 12 12 12 12 12 12 12 12 12 12 12 12 12 13 13 12 12 12 12 12 12 11 11 11 11 11 11 11 11 11 11 11 10 10
12 12 12 12 12 12 12 12 12 12 12 12 12 12 12 12 12 12 12 12 12 12 12 12 12 11 11 11 11 11 11 11 10 10 10 10 10 10
12 12 12 12 12 12 12 12 12 12 12 12 12 12 12 12 12 12 12 12 12 12 12 12 12 12 11 11 11 10 10 10 10 10 10 10 10 10
12 12 12 12 12 12 12 12 12 12 12 12 12 12 12 12 12 12 12 11 11 11 12 12 12 11 11 11 11 11 10 10 10 10 10 9 9 9
12 12 12 12 12 12 12 12 12 12 12 11 11 11 11 11 11 11 11 11 11 11 11 11 11 11 11 11 11 11 10 10 10 9 9 9 9 9
12 12 12 12 12 11 11 12 11 12 11 11 11 11 11 11 11 11 11 11 11 11 10 10 10 10 10 10 10 10 10 10 9 9 9 9 9 9
12 12 12 11 11 11 11 11 11 11 11 11 11 11 11 11 11 11 11 11 11 11 10 10 10 10 10 10 10 10 10 10 9 9 9 9 9 9
12 12 12 12 11 11 11 11 11 11 11 11 11 11 11 11 11 11 11 10 10 10 10 10 10 10 10 10 10 10 10 10 9 9 9 9 9 9
12 12 12 12 12 11 11 11 11 11 11 11 11 11 11 11 11 11 11 10 10 10 10 10 10 10 10 10 10 10 10 9 9 9 9 9 8 8
12 12 12 12 12 11 11 11 11 11 11 11 11 11 11 11 11 10 10 10 10 10 10 10 10 10 10 9 9 9 9 9 9 9 9 8 8 8
12 12 12 12 12 11 11 11 11 11 11 11 11 11 11 11 10 10 10 10 10 10 10 10 10 9 9 9 9 9 9 9 9 9 8 8 8 8
13 12 12 12 12 12 11 11 11 11 11 11 11 11 11 10 10 10 10 10 10 10 10 9 9 9 9 9 9 9 9 9 9 8 8 8 8 8
Wind_Speed
2 3 2 3 2 3 3 4 4 3 4 4 3 3 3 4 8 10 11 15 15 15 14 13 13 12 11 10 10 10 10 10 10 10 10 9 9 8
2 2 2 2 2 3 3 3 4 4 3 3 3 2 3 4 8 9 10 14 15 15 15 14 14 12 12 11 10 9 9 9 9 9 9 9 8 8
2 2 2 2 2 2 2 3 3 3 3 2 2 2 3 4 5 6 7 9 11 14 15 14 14 13 12 11 10 10 9 8 8 9 9 9 8 8
2 2 2 1 2 2 2 3 3 4 4 3 2 3 3 4 5 4 5 7 8 12 14 14 14 13 12 12 11 10 9 8 8 8 9 9 9 8
1 1 1 1 2 1 2 2 3 3 3 3 3 2 2 3 4 3 4 4 6 9 12 13 13 13 12 12 11 10 10 9 9 9 8 8 8 7
1 1 1 0 1 1 1 1 2 2 3 3 3 3 2 3 4 4 4 3 4 4 6 9 10 11 11 11 11 11 11 10 10 9 8 8 8 8
2 1 1 1 2 1 1 2 2 2 3 3 4 3 3 4 4 4 5 4 3 3 4 4 5 5 7 9 10 11 12 11 11 11 10 9 8 8
2 2 1 2 2 3 3 3 3 4 3 3 3 4 5 5 4 5 5 5 3 4 4 3 4 4 5 6 9 12 12 12 11 11 10 10 9 8
2 2 2 1 1 1 2 2 3 4 5 4 4 5 5 5 6 6 6 5 4 6 5 3 3 3 4 7 11 12 12 12 11 11 11 10 10 10
3 2 2 2 3 3 2 1 1 1 2 3 4 4 4 4 6 6 6 4 4 3 4 3 3 3 3 6 11 12 12 12 12 12 11 12 12 11
4 5 4 3 5 6 2 1 1 1 1 2 3 4 5 6 6 6 6 6 4 2 2 3 3 3 2 3 7 11 12 11 12 12 12 12 12 11
3 4 5 5 5 6 3 1 0 0 0 0 1 2 3 5 7 7 8 7 4 3 3 4 4 4 3 2 4 7 9 10 11 11 12 11 11 9
3 3 3 5 6 6 4 2 0 1 0 1 2 2 2 3 4 4 4 6 5 3 5 5 4 4 3 3 3 4 6 6 8 8 10 11 11 9
3 2 2 5 6 5 3 2 2 1 1 2 2 1 2 2 3 4 4 3 3 4 8 6 4 5 5 4 4 4 5 6 7 6 8 10 10 10
2 3 4 5 5 4 2 2 2 1 1 2 2 1 1 2 3 3 3 3 4 5 8 5 5 5 5 4 5 5 4 4 5 5 6 6 6 6
3 3 5 5 4 4 3 2 1 1 1 2 2 2 2 2 3 3 3 4 3 2 3 5 5 6 3 3 5 5 5 5 6 6 6 5 7 10
3 3 3 3 2 2 2 2 1 1 1 1 2 2 2 3 3 3 3 3 3 3 3 2 3 4 3 4 4 5 5 5 5 6 5 5 5 7
3 3 4 4 3 3 2 2 2 2 3 2 2 3 3 4 3 3 3 4 4 4 4 4 4 3 2 1 3 5 5 5 5 6 5 5 5 5
3 5 5 5 4 3 3 3 3 3 3 3 3 4 4 4 4 4 4 4 4 4 5 5 5 5 4 3 3 5 6 5 5 5 5 5 5 5
5 6 6 5 5 4 4 4 3 3 3 4 4 4 4 4 4 4 5 5 5 4 5 5 5 6 6 5 3 3 7 6 6 6 5 4 3 3
6 7 7 6 6 5 5 4 4 4 4 4 5 5 4 4 4 5 5 6 5 5 6 6 6 7 4 3 2 2 3 7 7 5 5 4 3 3
8 7 7 7 6 6 5 5 5 5 5 5 5 5 5 5 6 6 6 5 5 5 5 4 5 5 4 4 4 4 3 3 4 5 6 6 5 5
9 8 7 7 7 6 6 6 7 6 6 6 6 6 6 6 5 6 6 6 6 6 5 5 5 4 4 5 5 4 5 5 4 3 3 9 11 9
Wind_Direction
240 239 231 222 214 199 188 181 173 190 219 216 203 217 183 172 169 174 171 181 184 185 184 183 183 185 188 193 198 201 205 204 203 203 203 199 204 208
240 231 231 226 219 204 188 191 188 186 207 211 201 196 187 177 174 182 173 175 181 184 184 185 184 182 183 186 188 189 190 191 193 195 191 195 202 208
278 246 239 224 208 208 198 191 196 183 196 213 199 180 179 178 170 179 169 168 178 183 185 185 183 182 183 185 184 182 183 185 191 193 194 195 197 201
301 288 265 249 220 216 205 203 199 194 184 191 204 195 195 180 171 174 165 163 168 181 183 182 180 180 180 181 179 180 181 181 181 184 191 193 195 198
294 307 308 292 260 255 235 217 199 199 181 180 197 198 192 176 167 173 165 153 162 174 178 178 175 174 175 176 174 174 172 173 172 172 172 175 178 179
314 315 327 237 257 272 243 246 207 190 179 176 185 192 189 182 165 173 168 162 157 156 160 161 163 167 170 170 170 169 166 164 162 161 161 162 169 171
310 293 279 189 210 224 218 222 213 196 182 181 188 193 195 182 185 178 175 161 154 153 144 148 149 153 159 166 170 167 165 163 159 156 154 153 155 162
312 310 273 212 197 219 222 223 204 194 196 194 199 200 207 200 188 176 170 170 176 174 155 158 157 160 157 158 166 166 163 161 158 154 152 153 155 154
322 319 327 33 27 337 264 237 216 208 208 203 202 216 208 200 188 183 182 177 176 166 149 158 157 152 143 155 161 161 161 161 161 159 158 160 159 153
9 8 23 45 26 11 336 296 178 181 224 216 207 218 218 202 191 186 168 145 123 143 142 151 158 148 133 144 158 159 159 159 158 159 159 159 157 155
27 34 41 45 22 12 353 323 152 170 218 203 203 207 204 188 176 157 154 153 155 167 150 142 148 130 127 143 158 161 158 158 157 157 156 155 155 155
19 42 47 37 17 6 350 350 104 289 279 158 167 178 187 177 170 170 167 167 154 161 172 146 150 142 144 154 157 163 163 164 163 163 163 161 160 159
3 16 25 21 13 0 356 1 323 254 230 130 127 126 137 148 158 160 159 165 164 165 169 152 153 158 153 150 159 170 171 169 173 174 174 173 171 170
347 1 4 358 355 350 350 341 343 12 106 100 98 107 119 132 142 144 144 145 141 156 165 159 156 166 155 149 162 170 176 177 175 176 181 184 188 193
326 326 322 323 330 327 312 311 336 6 127 129 132 137 126 123 121 126 131 125 117 138 161 164 152 158 157 159 157 160 167 184 181 173 177 184 192 194
298 298 298 297 293 296 298 283 247 206 163 152 149 142 131 130 135 142 137 132 123 120 143 158 162 156 159 154 154 165 166 175 182 183 179 187 196 195
329 308 286 276 266 255 256 247 217 175 167 160 149 150 151 154 162 159 145 139 145 154 148 124 123 126 130 150 161 172 170 174 178 178 177 191 203 199
322 286 285 277 265 253 244 242 227 201 193 188 177 175 174 175 178 172 161 162 167 170 168 160 139 115 76 9 180 174 176 180 178 177 176 190 212 209
257 259 262 263 256 246 235 231 227 212 192 190 190 190 185 182 179 181 181 181 183 181 175 167 165 163 177 206 232 197 179 179 172 177 188 192 205 209
235 246 251 253 247 240 232 231 225 213 202 198 202 203 195 188 186 188 187 188 187 182 178 177 184 187 191 194 193 203 196 177 175 186 195 196 197 187
237 236 238 240 239 232 227 225 223 217 210 201 202 205 203 196 195 196 192 192 190 185 189 197 200 186 166 126 134 178 197 200 186 177 179 179 194 201
243 241 235 231 227 223 219 217 221 224 220 212 207 203 203 201 200 199 193 189 192 194 196 188 169 161 163 177 192 196 193 188 198 196 191 183 173 196
238 239 235 227 222 217 213 213 217 221 219 216 212 208 202 202 203 201 199 196 190 188 183 174 170 175 185 190 194 198 190 182 178 184 232 226 218 209
Height
1484 1485 1487 1488 1490 1491 1493 1495 1498 1498 1499 1501 1502 1503 1506 1509 1511 1514 1516 1519 1521 1524 1526 1529 1531 1533 1535 1537 1539 1540 1542 1543 1545 1546 1547 1548 1549 1550
1482 1483 1484 1485 1487 1488 1490 1492 1493 1495 1497 1498 1500 1502 1504 1505 1508 1510 1512 1515 1518 1520 1523 1525 1527 1529 1531 1533 1535 1536 1538 1540 1541 1542 1543 1545 1545 1546
1480 1481 1482 1483 1484 1485 1487 1488 1490 1492 1493 1495 1497 1499 1501 1502 1504 1506 1509 1511 1514 1517 1519 1522 1524 1526 1528 1529 1531 1533 1534 1536 1537 1538 1540 1541 1542 1543
1478 1479 1480 1481 1482 1483 1484 1485 1487 1489 1491 1492 1494 1496 1497 1499 1501 1503 1505 1508 1510 1513 1515 1518 1520 1522 1524 1526 1527 1529 1530 1532 1533 1534 1536 1537 1538 1539
1477 1477 1478 1479 1479 1480 1481 1483 1484 1486 1487 1489 1490 1493 1494 1496 1498 1500 1502 1504 1506 1509 1511 1514 1516 1518 1520 1522 1524 1525 1527 1528 1529 1531 1532 1533 1534 1535
1475 1475 1476 1476 1477 1477 1478 1480 1481 1483 1484 1486 1487 1489 1491 1493 1495 1496 1499 1501 1503 1505 1507 1510 1512 1514 1516 1518 1520 1521 1523 1524 1526 1527 1528 1529 1530 1531
1474 1474 1473 1473 1474 1475 1475 1477 1478 1480 1481 1482 1484 1485 1487 1489 1491 1492 1494 1497 1499 1501 1503 1505 1508 1510 1512 1514 1515 1517 1519 1521 1522 1523 1525 1526 1527 1528
1472 1472 1472 1471 1472 1472 1473 1474 1475 1476 1478 1479 1480 1482 1483 1485 1487 1488 1491 1492 1494 1498 1499 1501 1504 1506 1508 1509 1511 1513 1515 1517 1518 1520 1521 1522 1523 1524
1471 1471 1471 1470 1470 1471 1471 1472 1473 1474 1475 1476 1477 1477 1479 1481 1482 1484 1486 1488 1490 1493 1496 1498 1500 1502 1504 1506 1508 1510 1512 1513 1515 1516 1518 1519 1520 1521
1471 1471 1470 1470 1470 1469 1470 1470 1470 1471 1472 1473 1473 1474 1475 1477 1478 1480 1482 1485 1488 1490 1492 1494 1497 1499 1501 1503 1504 1506 1508 1510 1511 1513 1514 1516 1518 1519
1471 1471 1470 1469 1469 1469 1469 1468 1469 1469 1469 1470 1470 1471 1472 1473 1474 1477 1479 1481 1484 1486 1489 1491 1493 1496 1498 1500 1502 1503 1505 1507 1508 1510 1512 1513 1515 1516
1471 1471 1470 1470 1469 1468 1468 1467 1467 1467 1467 1467 1467 1468 1468 1469 1471 1473 1475 1478 1480 1483 1485 1488 1490 1493 1495 1497 1499 1501 1503 1504 1506 1507 1509 1511 1512 1514
1472 1471 1470 1469 1468 1468 1467 1466 1466 1466 1466 1466 1466 1466 1466 1467 1468 1470 1473 1475 1478 1480 1482 1485 1487 1490 1492 1494 1496 1498 1500 1501 1503 1505 1507 1508 1509 1511
1472 1471 1470 1469 1468 1467 1466 1466 1465 1465 1465 1465 1465 1465 1466 1466 1467 1469 1471 1473 1476 1478 1480 1483 1484 1486 1489 1491 1493 1495 1497 1499 1501 1502 1504 1506 1507 1508
1472 1471 1470 1469 1468 1467 1466 1466 1465 1465 1465 1465 1466 1466 1466 1466 1467 1469 1470 1472 1474 1476 1478 1480 1483 1484 1487 1488 1490 1492 1494 1496 1498 1500 1501 1503 1504 1506
1471 1470 1470 1469 1468 1467 1466 1466 1465 1465 1465 1466 1466 1466 1466 1467 1468 1469 1470 1471 1473 1475 1476 1478 1480 1483 1484 1486 1488 1489 1491 1493 1495 1497 1498 1500 1502 1503
1470 1470 1469 1468 1467 1467 1466 1466 1466 1465 1465 1465 1466 1466 1466 1467 1468 1469 1470 1471 1472 1474 1475 1477 1478 1480 1483 1484 1485 1487 1489 1491 1492 1494 1495 1497 1498 1500
1469 1468 1468 1467 1466 1466 1466 1465 1465 1465 1465 1465 1465 1465 1466 1466 1467 1468 1469 1470 1471 1473 1474 1475 1477 1478 1481 1482 1483 1484 1486 1488 1490 1491 1492 1494 1495 1497
1467 1466 1465 1465 1465 1464 1464 1464 1463 1463 1463 1464 1464 1464 1465 1465 1466 1467 1468 1469 1470 1471 1472 1473 1475 1476 1477 1479 1480 1482 1483 1485 1486 1488 1489 1491 1492 1494
1464 1463 1462 1462 1462 1462 1461 1461 1461 1461 1461 1461 1462 1462 1462 1463 1464 1465 1466 1467 1468 1469 1470 1471 1472 1473 1475 1476 1477 1479 1480 1481 1483 1484 1486 1487 1489 1490
1459 1459 1458 1458 1458 1458 1458 1458 1458 1458 1458 1458 1458 1459 1459 1460 1461 1462 1463 1464 1465 1466 1467 1468 1469 1471 1472 1474 1475 1475 1477 1478 1480 1481 1482 1484 1485 1486
1455 1454 1454 1454 1454 1454 1454 1454 1454 1454 1454 1454 1454 1455 1456 1456 1457 1458 1459 1460 1461 1462 1463 1465 1466 1468 1469 1470 1470 1472 1473 1475 1476 1477 1479 1480 1480 1481
1450 1449 1449 1449 1449 1449 1448 1448 1448 1449 1449 1449 1450 1450 1451 1452 1452 1454 1455 1456 1457 1458 1460 1461 1462 1464 1465 1466 1467 1468 1469 1470 1471 1473 1474 1475 1477 1478